Погода в Анцухихи

Мадагаскар     14°55′52″S   47°56′42″E
темп.,
°C
ветер,
м/с
пор.,
м/с
влажн.,
%
обл.,
%
осадки,
мм/ч
давл.,
гПа
погр.,
м
1 марта, пн
пн100:00+23всв119249 0.2 100924
03:00+23в018673 0.2 100823
06:00+23юв119057 0.0 100923
09:00+29ююв117530 0.0 1011476
12:00+32юз117023 1.6 10091011
15:00+30з237946 8.0 1008678
18:00+26ссз278899 2.6 1008257
21:00+24ссз139298 3.6 101188
2 марта, вт
вт200:00+23св369897 9.2 1011264
03:00+23вюв249998 21.3 1010164
06:00+23ююв2498100 0.3 1010144
09:00+27юв128197 0.3 1012379
12:00+33зсз126370 0.3 10101200
15:00+28сз358769 7.8 1008354
18:00+25с2694100 3.3 1009188
21:00+23с4996100 4.3 1012346
3 марта, ср
ср300:00+22св1397100 0.3 1011172
03:00+23в0095100 0.3 101025
06:00+22ююв119586 0.0 101023
09:00+28в117645 0.0 1011496
12:00+33зюз11620 0.0 10091221
15:00+29сз35838 5.6 1007642
18:00+25ссз3892100 5.8 1008275
21:00+24с399585 7.4 1010291
4 марта, чт
чт400:00+23ссв279486 0.5 1009219
03:00+23ссв139392 0.6 1009109
06:00+23сз119399 0.3 100941
09:00+23ююв1194100 1.9 101140
12:00+27ссз2482100 0.4 1009555
15:00+28ссз4775100 1.8 10071157
18:00+25ссз259181 1.1 1009154
21:00+24ссв229390 1.1 101075
5 марта, пт
пт500:00+23св1294100 0.0 100950
03:00+23св1294100 0.0 100859
06:00+23с1195100 1.2 100935
09:00+25ссв268999 3.3 1010420
12:00+28ссз478398 3.4 1009958
15:00+26ссз6109399 13.3 1007900
18:00+24с3997100 7.9 1008519
21:00+24сз3899100 22.4 1009478